This demonstration page uses our WeatherBlox Daily Observations layout. Learn more.

Left ArrowRight Arrow

44.8408, -93.29828

Hourly Observations for September 17, 2019

Temp ( °F °C ) Dew Point ( °F °C ) Humidity (%) Winds ( mph kmh ) Pressure ( in mb ) Visibility ( mi km ) Precip ( " mm )
12:53 am 00:53 Cloudy 75 23.9 66 18.9 74 74 S 9 15 29.97 1015 10 16 0.00 0.00
1:53 am 01:53 Cloudy 74 23.3 66 18.9 76 76 SSE 7 11 29.97 1015 10 16 0.00 0.00
2:53 am 02:53 Cloudy 73 22.8 65 18.3 76 76 SE 6 9 29.97 1015 10 16 0.00 0.00
3:53 am 03:53 Clear 72 22.2 65 18.3 79 79 E 7 11 29.97 1015 10 16 0.00 0.00
4:53 am 04:53 Cloudy 71 21.7 65 18.3 81 81 ESE 6 9 29.98 1015 10 16 0.00 0.00
5:53 am 05:53 Mostly Cloudy 71 21.7 65 18.3 81 81 SE 7 11 29.98 1015 10 16 0.00 0.00
6:53 am 06:53 Mostly Cloudy 71 21.7 64 17.8 79 79 SE 7 11 29.99 1016 10 16 0.00 0.00
7:53 am 07:53 Cloudy 71 21.7 64 17.8 79 79 SE 8 13 29.99 1016 10 16 0.00 0.00
8:53 am 08:53 Cloudy 72 22.2 65 18.3 79 79 SSE 15 24 29.97 1015 10 16 0.00 0.00
9:53 am 09:53 Mostly Cloudy 75 23.9 66 18.9 74 74 SSE 12 19 29.97 1015 10 16 0.00 0.00
10:53 am 10:53 Mostly Cloudy 78 25.6 67 19.4 69 69 S 12 19 29.97 1015 10 16 0.00 0.00
11:53 am 11:53 Mostly Cloudy 82 27.8 68 20 63 63 S 14 22 29.95 1014 10 16 0.00 0.00
12:53 pm 12:53 Partly Cloudy 83 28.3 68 20 61 61 S 14 22 29.93 1014 10 16 0.00 0.00
1:53 pm 13:53 Partly Cloudy 85 29.4 68 20 57 57 S 21 33 29.91 1013 10 16 0.00 0.00
2:53 pm 14:53 Mostly Sunny 86 30 69 20.6 57 57 S 17 28 29.90 1012 10 16 0.00 0.00
3:53 pm 15:53 Mostly Sunny 88 31.1 70 21.1 55 55 S 15 24 29.88 1012 10 16 0.00 0.00
4:53 pm 16:53 Mostly Sunny 88 31.1 68 20 52 52 S 17 28 29.87 1012 10 16 0.00 0.00
5:53 pm 17:53 Mostly Sunny 86 30 69 20.6 57 57 SSE 14 22 29.87 1011 10 16 0.00 0.00
6:53 pm 18:53 Mostly Sunny 83 28.3 70 21.1 65 65 SSE 14 22 29.87 1012 10 16 0.00 0.00
7:53 pm 19:53 Mostly Clear 81 27.2 69 20.6 67 67 SE 13 20 29.88 1012 10 16 0.00 0.00
8:53 pm 20:53 Mostly Clear 80 26.7 69 20.6 69 69 SSE 15 24 29.89 1012 10 16 0.00 0.00
9:53 pm 21:53 Mostly Cloudy 78 25.6 68 20 71 71 SSE 18 30 29.90 1012 10 16 0.00 0.00
10:53 pm 22:53 Partly Cloudy 76 24.4 67 19.4 74 74 S 15 24 29.91 1013 10 16 0.00 0.00
11:53 pm 23:53 Partly Cloudy 74 23.3 66 18.9 76 76 S 14 22 29.91 1013 10 16 0.00 0.00

Powered by AerisWeather